{"data":{"norad_id":55622,"epoch":"2026-05-24T10:28:55.651872Z","epoch_age_seconds":133999,"freshness":"FRESH","line1":"1 55622U 23020BF  26144.43675523  .00000300  00000+0  20434-4 0  9998","line2":"2 55622  43.0017 286.4654 0001423 283.9804  76.0889 15.27586033180621","mean_motion":15.27586033,"eccentricity":0.0001423,"inclination_deg":43.0017,"raan_deg":286.4654,"arg_perigee_deg":283.9804,"mean_anomaly_deg":76.0889,"bstar":2.0434e-5,"rev_number":18062,"period_min":94.266376419534,"perigee_km":482.05468691592,"apogee_km":484.00737533758,"semimajor_km":6861.1680311267,"source":"CELESTRAK","updated_at":"2026-05-25T13:38:17.845949Z"}}